Oregon State Current Weather Observations

 
 ASUS46 KPQR 021510
 RWROR 
 
 OREGON REGIONAL WEATHER ROUNDUP
 NATIONAL WEATHER SERVICE PORTLAND OR
 700 AM PST WED DEC 02 2020
 
 NOTE: "FAIR" INDICATES FEW OR NO CLOUDS BELOW 12,000 FEET WITH
 NO SIGNIFICANT WEATHER AND/OR OBSTRUCTIONS TO VISIBILITY.
 
 ORZ001>013-021600-
 NORTHWEST OREGON
 
   
 CITY           SKY/WX    TMP DP  RH WIND       PRES   REMARKS
 ASTORIA        CLEAR     47  25  42 E7G21     30.15F                  
 TILLAMOOK      CLEAR     48  27  43 NE22G28   30.15F                  
 NEWPORT        CLEAR     46  30  53 E23G29    30.12S                  
 FLORENCE       FAIR      43  31  62 E3        30.12R                  
 PORTLAND       CLEAR     46  26  45 E17G26    30.25R                  
 VANCOUVER WA   CLEAR     49  21  33 E20G30    30.25S                  
 SCAPPOOSE      CLEAR     31  28  89 W6        30.26S                  
 HILLSBORO      CLEAR     46  24  42 E15G26    30.24S                  
 AURORA         CLEAR     49  25  39 NE13G21   30.20S                  
 MCMINNVILLE    CLEAR     43  28  55 N13       30.20F                  
 SALEM          CLEAR     31  27  85 S3        30.18F                  
 CORVALLIS      CLOUDY    25  24  96 CALM      30.21S                  
 EUGENE         FOG       33  32  96 CALM      30.20S VSB 1/16         
 CRESWELL       FOG       34  34 100 W5        30.18F VSB 1/4          
 
ORZ021-028-021600- SOUTHWEST OREGON CITY SKY/WX TMP DP RH WIND PRES REMARKS NORTH BEND CLEAR 38 34 85 S10 30.14R WCI 31 BROOKINGS CLEAR 41 35 79 SE7 30.12F ROSEBURG CLOUDY 37 34 89 CALM 30.18S SEXTON SUMMIT CLEAR 43 18 36 E17 30.14R GRANTS PASS FOG 30 30 100 CALM 30.25R VSB 1/4 MEDFORD CLEAR 28 25 88 CALM 30.20R
ORZ014>016-041-021600- COLUMBIA GORGE CITY SKY/WX TMP DP RH WIND PRES REMARKS TROUTDALE CLEAR 45 29 53 E28G43 30.26F HOOD RIVER CLEAR 34 28 80 E6 30.54R THE DALLES CLEAR 28 26 92 CALM 30.57S
ORZ029>031-041-044-049-050-061>064-502-503-505>511-021600- EASTERN OREGON CITY SKY/WX TMP DP RH WIND PRES REMARKS MADRAS CLEAR 18 16 93 SE6 30.48F REDMOND FOG 22 18 85 CALM 30.43S VSB 1/2 BEND FOG 27 25 93 CALM 30.44S VSB<1/4 PRINEVILLE CLEAR 12 10 92 W5 30.43S KLAMATH FALLS PTCLDY 24 20 84 NE5 30.29S LAKEVIEW CLEAR 15 13 91 NW6 30.30F HERMISTON CLEAR 24 20 84 SE5 30.55S PENDLETON PTCLDY 24 23 96 CALM 30.51S JOHN DAY CLEAR 22 19 87 E8 30.41F MEACHAM CLEAR 11 5 77 CALM 30.40F LA GRANDE CLEAR 17 15 92 NW5 30.51F BAKER CITY NOT AVBL BURNS PTCLDY 10 5 80 CALM 30.43S ROME N/A 11 5 77 VRB5 30.44R ONTARIO CLEAR 21 17 84 CALM 30.59R
OTHER REGIONAL REPORTS CITY SKY/WX TMP DP RH WIND PRES REMARKS SEATTLE CLEAR 39 32 76 NE10 30.24F SPOKANE FOG 24 22 91 NE8 30.52F VSB 1/4 VANCOUVER BC CLEAR 32 32 100 E3 30.29F PRINCE GEORGE CLEAR 9 7 92 VRB2 30.36F DAWSON CREEK CLEAR 30 25 80 SE3 30.21F WHITEHORSE FLURRIES 36 34 93 S25 29.49F WCI 23 BOISE CLEAR 25 18 74 SE10 30.52R WCI 15 REDDING CLEAR 34 28 79 CALM 30.14F SAN FRANCISCO PTCLDY 46 40 79 CALM 30.11S

Data from: http://www.wrh.noaa.gov/sew/get.php?pil=RWR&sid=OR&version=0&format=printer

Current Observations

Current Weather Conditions by Major Highway
Washington State Current Weather Observations   …  Oregon State Current Weather Observation



48 Hour Forecast


Seattle  …  Vancouver  …  Portland
————————————————————————————————————————
Bend  …  Spokane  …  Richland  …  Pendleton  …  Blue Mountains I-84  …  Yakima
————————————————————————————————————————
Goldendale, Washington Higher Elevations  …  Dallesport Airport - Goldendale  …  Bingen - White Salmon - Hood River  …  Index





Top of Page